EST,Max TemperatureF,Mean TemperatureF,Min TemperatureF,Max Dew PointF,MeanDew PointF,Min DewpointF,Max Humidity, Mean Humidity, Min Humidity, Max Sea Level PressureIn, Mean Sea Level PressureIn, Min Sea Level PressureIn, Max VisibilityMiles, Mean VisibilityMiles, Min VisibilityMiles, Max Wind SpeedMPH, Mean Wind SpeedMPH, Max Gust SpeedMPH,PrecipitationIn, CloudCover, Events, WindDirDegrees
2013-1-1,39,34,28,27,22,13,62,56,44,29.99,29.89,29.83,10,10,10,17,12,22,0.00,4,,293
2013-1-2,30,26,21,15,12,9,69,53,45,30.16,30.05,29.99,10,10,10,15,9,23,0.00,1,,304
2013-1-3,30,22,15,16,13,7,71,61,45,30.19,30.14,30.07,10,10,10,12,6,,0.00,1,,303
2013-1-4,39,29,19,22,19,12,74,61,49,30.09,30.01,29.94,10,10,10,21,8,25,0.00,2,,255
2013-1-5,44,32,19,22,18,14,81,59,40,30.29,30.19,30.00,10,10,10,16,8,22,0.00,0,,276
2013-1-6,43,33,23,36,29,20,100,81,62,30.24,30.10,29.99,10,7,2,14,4,21,0.00,4,Rain-Snow,247
2013-1-7,44,31,17,32,21,12,85,66,38,30.42,30.28,30.06,10,10,7,21,7,26,0.00,0,,321
2013-1-8,48,32,17,36,27,12,93,78,50,30.45,30.40,30.37,10,9,2,20,4,28,0.00,0,,242
2013-1-9,48,34,21,40,30,18,89,76,56,30.41,30.30,30.16,10,8,5,16,3,23,0.00,2,,223
2013-1-10,46,37,26,31,22,19,78,54,34,30.56,30.44,30.22,10,10,10,21,10,30,0.00,0,,308
2013-1-11,48,34,21,46,36,18,93,85,63,30.54,30.32,30.15,10,8,4,12,4,17,0.32,5,Rain,112
2013-1-12,48,45,42,46,44,42,100,95,89,30.18,30.14,30.06,10,2,0,13,7,18,0.13,8,Fog-Rain,35
2013-1-13,50,46,41,49,44,39,100,95,83,30.18,30.13,30.04,10,2,0,6,2,,0.02,8,Fog,211
2013-1-14,57,49,37,55,44,26,100,81,44,30.28,30.10,29.97,10,5,0,15,7,20,0.05,7,Fog-Rain,294
2013-1-15,39,37,35,34,30,26,93,76,60,30.34,30.28,30.23,10,10,8,10,6,,0.19,8,Rain,357
2013-1-16,39,37,35,37,35,31,93,91,85,30.20,29.97,29.80,9,5,2,16,8,23,0.69,7,Rain,331
2013-1-17,43,38,32,34,29,23,92,71,51,30.09,30.04,29.94,10,9,5,14,6,20,0.00,3,Snow,314
2013-1-18,33,22,12,19,8,2,77,52,32,30.52,30.34,30.02,10,10,9,17,10,28,0.01,3,,350
2013-1-19,46,30,15,37,29,8,74,60,50,30.42,30.21,29.97,10,10,10,22,11,36,0.00,0,,220
2013-1-20,54,44,30,36,26,11,68,50,25,30.02,29.83,29.69,10,10,10,21,14,30,0.00,0,,250
2013-1-21,30,26,21,27,21,6,93,74,38,30.13,29.94,29.82,10,5,0,17,7,20,0.13,7,Fog-Snow,282
2013-1-22,27,21,14,23,5,-7,85,54,37,30.17,29.99,29.82,10,10,8,21,11,33,0.00,4,,287
2013-1-23,19,14,10,-2,-4,-7,56,46,36,30.24,30.19,30.15,10,10,10,20,10,28,0.00,4,,284
2013-1-24,21,8,-6,4,-4,-14,72,51,35,30.35,30.23,30.15,10,10,10,23,8,33,0.00,0,,315
2013-1-25,25,14,3,18,8,-6,88,65,39,30.40,30.23,30.07,10,7,1,13,6,,0.02,5,Snow,303
2013-1-26,25,20,16,16,8,1,86,60,42,30.34,30.14,30.04,10,10,10,17,10,26,0.00,2,,322
2013-1-27,25,17,10,12,5,1,67,59,50,30.47,30.42,30.35,10,10,10,16,11,26,0.00,0,,296
2013-1-28,,,,,,,,,,,,,,,,,,,,,,
2013-1-29,,,,,,,,,,,,,,,,,,,,,,
2013-1-30,57,55,53,52,51,48,96,90,81,29.87,29.70,29.48,8,5,0,21,14,36,0.00,8,Fog,198
2013-1-31,57,44,30,55,39,9,94,71,30,29.76,29.32,29.12,10,7,1,29,20,54,0.54,5,Rain,225